Location: Aragnouet
(42.7874°N, 0.2165°E)
Time: 09:55:32
(UTC+00:00)

STARLINK-1243 - Pass Details

Date: 09 April 2020
Orbit: 549 x 550 km, 53.0° (Epoch: 06 June)

Event Time Altitude Azimuth Distance (km) Brightness Sun altitude
Rises 21:05:38 0° 306° (NW) 2,723 8.5 -25.5°
Reaches altitude 10° 21:07:52 10° 308° (NW) 1,827 7.3 -25.8°
Enters shadow 21:11:05 52° 317° (NW) 689 4.3 -26.3°
